星链-5113 (STARLINK-5113 )

导读 | 豆包AI

STARLINK-5113是美国太空探索技术公司(SpaceX)星链(Starlink)互联网卫星项目中的一颗卫星,于2022年10月5日发射升空,属于星链低轨卫星星座的组成部分。该卫星旨在为全球用户提供低延迟、高速率的卫星互联网服务,推进星链星座全球覆盖组网的进程。

Basic Information
目录编号:
53988
目录名称:
STARLINK-5113
国际标识:
2022-125AA
轨道中心:
EARTH
卫星名称:
星链-5113
卫星全名:
星链-5113 (STARLINK-5113 )
卫星状态:
在轨 (已飞行1303 天)
发射日期:
2022-10-05 UTC
国别 :
美国 (US)
星等 :
--
Orbit Information
数据来源 国际轨道数据 AOE轨道数据
星历时间 2026-04-30T09:03:09+0800
16小时前
查看轨道信息
2026-04-29T17:00:00+0800
1天前
查看轨道信息
半长轴 6917.914km 6917.905km
偏心率 0.0001188 0.0001316
轨道倾角 53.218° 53.217°
近地点辐角 91.271° 82.230°
升交点赤经 343.698° 346.701°
平近点角 268.842° 242.774°
近地点 538.955km 538.857km
远地点 540.599km 540.679km
周期 95.438分钟 95.438分钟
每日圈数 15.088291 15.088322
Detailed Information
固有亮度:
5
最大亮度:
2.5
卫星平台:
Starlink v1.5
覆盖范围:
全球
运营商:
太空探索技术公司
运营商所在国:
美国
制造商(研发单位):
太空探索技术公司
制造商所在国:
美国
使用方式:
暂无
Satellite Introduction
星链(Starlink)计划是由太空探索技术公司(SpaceX)提出的一个巨型低轨卫星互联网星座项目,计划在2019年至2024年间在太空搭建由约1.2万颗卫星组成的“星链”网络,其中1584颗将部署在地球上空550千米处的近地轨道,并从2020年开始工作。该卫星仍在工作。
2D Orbit Map
3D Orbit Map
Orbit Altitude Analysis Chart
Orbit Inclination Analysis Chart
Orbit Comprehensive Analysis Chart
View Comprehensive Chart